User: anonymous   Login
Location: Theydon Bois
(51.6750°N, 0.1050°E)
Time: 11:09:54
(UTC+01:00)
Language:

Cosmos 1680 Rocket - Orbit

View from above orbital plane
View from above orbital plane
View from above satellite
View from above satellite

Ground track
Ground track

The orbit data is extracted from the following two-line orbital elements,

1 16012U 85079B   18169.49790180 -.00000081  00000-0 -18688-4 0  9998
2 16012  74.0568 183.1363 0015072 350.9481   9.1398 14.36285660716388
Epoch (UTC): 18 June 2018 11:56:58
Eccentricity: 0.0015072
inclination: 74.0568°
perigee height: 760 km
apogee height: 781 km
right ascension of ascending node: 183.1363°
argument of perigee: 350.9481°
revolutions per day: 14.36285660
mean anomaly at epoch: 9.1398°
orbit number at epoch: 71638

The dashed part of the orbit path shows where the satellite is in the earth's shadow,  

DLR